KTXEAGLE7 Weather Reports


Display with metric or nautical units.
time (UTC)temp
F
wind
direction
speed
MPH
gust
MPH
rain 1hr
in
rain 24hr
in
rain mn
in
humidity
%
barometer
mb
20260902134543 79 257 4.0 8.0 0.00 0.00 0.00 96 1016.1
20260902133045 79 235 4.0 10.0 0.00 0.00 0.00 97 1015.9
20260902131539 78 247 6.0 9.0 0.00 0.00 0.00 97 1015.7
20260902130040 78 219 4.0 10.0 0.00 0.00 0.00 98 1015.3
20260902124534 78 231 6.0 9.0 0.00 0.00 0.00 98 1014.9
20260902123035 78 237 6.0 10.0 0.00 0.00 0.00 98 1014.8
20260902121533 78 246 5.0 8.0 0.00 0.00 0.00 98 1014.7
20260902120029 78 234 5.0 7.0 0.00 0.00 0.00 98 1014.8
20260902114534 78 223 5.0 9.0 0.00 0.00 0.00 98 1014.9
20260902113027 78 238 6.0 10.0 0.00 0.00 0.00 98 1014.8
20260902111537 78 232 6.0 11.0 0.00 0.00 0.00 97 1014.6
20260902110036 78 211 6.0 9.0 0.00 0.00 0.00 97 1014.6
20260902104536 78 226 5.0 9.0 0.00 0.00 0.00 97 1014.5
20260902103022 78 227 4.0 7.0 0.00 0.00 0.00 97 1014.7
20260902101521 78 225 6.0 9.0 0.00 0.00 0.00 97 1014.6
20260902100030 78 236 4.0 7.0 0.00 0.00 0.00 97 1014.4
20260902094522 79 232 4.0 9.0 0.00 0.00 0.00 97 1014.5
20260902093017 79 225 3.0 5.0 0.00 0.00 0.00 97 1014.4
20260902091517 79 231 3.0 8.0 0.00 0.00 0.00 97 1014.2
20260902090014 78 222 4.0 6.0 0.00 0.00 0.00 97 1014.3
20260902084513 78 238 3.0 5.0 0.00 0.00 0.00 97 1014.5
20260902083012 78 229 3.0 9.0 0.00 0.00 0.00 96 1014.4
20260902081516 78 229 5.0 9.0 0.00 0.00 0.00 96 1014.4
20260902080010 78 231 5.0 7.0 0.00 0.00 0.00 96 1014.5
20260902074508 78 254 4.0 7.0 0.00 0.00 0.00 95 1014.6
20260902073007 78 257 2.0 5.0 0.00 0.00 0.00 95 1014.7
20260902071511 78 228 3.0 5.0 0.00 0.00 0.00 95 1014.8
20260902070008 78 256 2.0 3.0 0.00 0.00 0.00 95 1014.8
20260902064503 78 226 2.0 4.0 0.00 0.00 0.00 94 1014.7
20260902063007 78 229 3.0 5.0 0.00 0.00 0.00 94 1014.8
20260902061503 78 227 3.0 5.0 0.00 0.00 0.00 94 1014.8
20260902060006 79 228 2.0 3.0 0.00 0.00 0.00 93 1014.9
20260902054605 79 198 0.0 4.0 0.00 0.00 0.00 94 1014.8
20260902053059 79 190 0.0 0.0 0.00 0.00 0.00 94 1014.8
20260902051558 80 190 0.0 0.0 0.00 0.00 0.00 93 1014.6
20260902044552 81 155 0.0 0.0 0.00 0.00 0.00 91 1014.7
20260902043053 81 155 0.0 0.0 0.00 0.00 0.00 90 1014.8
20260902041604 81 155 0.0 0.0 0.00 0.00 0.00 90 1014.8
20260902040050 81 59 0.0 0.0 0.00 0.00 0.00 90 1014.9
20260902034554 81 59 0.0 0.0 0.00 0.00 0.00 90 1014.8
20260902033104 81 59 0.0 0.0 0.00 0.00 0.00 89 1014.6
20260902031549 82 59 0.0 0.0 0.00 0.00 0.00 88 1014.6
20260902030048 82 59 0.0 0.0 0.00 0.00 0.00 89 1014.5
20260902024549 82 183 0.0 0.0 0.00 0.00 0.00 89 1014.3
20260902023048 82 183 0.0 2.0 0.00 0.00 0.00 89 1014.0
20260902021607 82 183 0.0 3.0 0.00 0.00 0.00 89 1013.9
20260902020055 82 191 5.0 7.0 0.00 0.00 0.00 88 1013.8
20260902014547 83 169 3.0 4.0 0.00 0.00 0.00 86 1013.5
20260902013046 83 150 2.0 4.0 0.00 0.00 0.00 83 1013.5
20260902011548 84 135 3.0 7.0 0.00 0.00 0.00 81 1013.3
20260902010056 85 143 6.0 10.0 0.00 0.00 0.00 78 1013.2
20260902004546 86 149 4.0 9.0 0.00 0.00 0.00 73 1013.2
20260902003042 88 86 4.0 8.0 0.00 0.00 0.00 64 1013.0
20260902001541 89 92 3.0 6.0 0.00 0.00 0.00 65 1013.0
20260902000051 89 106 5.0 8.0 0.00 0.00 0.00 64 1013.1
20260901234604 90 66 4.0 10.0 0.00 0.00 0.00 62 1012.9
20260901233040 91 88 6.0 11.0 0.00 0.00 0.00 61 1013.1
20260901231548 92 92 7.0 12.0 0.00 0.00 0.00 58 1013.1
20260901230056 92 76 4.0 6.0 0.00 0.00 0.00 63 1013.1
20260901224538 91 103 5.0 8.0 0.00 0.00 0.00 63 1012.9
20260901223059 91 100 4.0 7.0 0.00 0.00 0.00 63 1012.8
20260901221537 91 94 2.0 8.0 0.00 0.00 0.00 65 1013.1
20260901220035 91 51 4.0 9.0 0.00 0.00 0.00 65 1013.3
20260901214531 91 95 5.0 9.0 0.00 0.00 0.00 66 1013.4
20260901213030 91 105 7.0 11.0 0.00 0.00 0.00 65 1013.4
20260901211541 92 118 4.0 11.0 0.00 0.00 0.00 65 1013.4
20260901210027 91 111 6.0 9.0 0.00 0.00 0.00 65 1013.6
20260901204539 90 94 5.0 10.0 0.00 0.00 0.00 67 1013.6
20260901203026 90 95 7.0 12.0 0.00 0.00 0.00 66 1014.0
20260901201523 90 97 8.0 11.0 0.00 0.00 0.00 69 1014.2
20260901200035 91 80 9.0 14.0 0.00 0.00 0.00 66 1014.2
20260901194522 91 71 4.0 8.0 0.00 0.00 0.00 64 1014.3
20260901193019 92 48 1.0 8.0 0.00 0.00 0.00 62 1014.5
20260901191521 92 41 3.0 6.0 0.00 0.00 0.00 62 1014.8
20260901190023 92 69 1.0 10.0 0.00 0.00 0.00 65 1014.9
20260901184519 92 90 6.0 9.0 0.00 0.00 0.00 64 1015.0
20260901183031 91 27 4.0 10.0 0.00 0.00 0.00 64 1015.2
20260901181507 91 24 5.0 10.0 0.00 0.00 0.00 66 1015.8
20260901180003 89 57 3.0 9.0 0.00 0.00 0.00 68 1015.8
20260901174501 89 42 3.0 10.0 0.00 0.00 0.00 69 1016.1
20260901173110 88 40 3.0 11.0 0.00 0.00 0.00 70 1016.2
20260901171612 89 82 4.0 6.0 0.00 0.00 0.00 66 1016.4
20260901164630 88 17 2.0 6.0 0.00 0.00 0.00 67 1016.5
20260901163055 88 355 2.0 5.0 0.00 0.00 0.00 68 1016.7
20260901161552 87 36 0.0 9.0 0.00 0.00 0.00 71 1016.6
20260901160054 87 5 2.0 6.0 0.00 0.00 0.00 70 1016.5
20260901154550 87 76 3.0 8.0 0.00 0.00 0.00 72 1016.7
20260901153048 86 11 1.0 6.0 0.00 0.00 0.00 74 1016.8
20260901151547 85 49 3.0 6.0 0.00 0.00 0.00 79 1016.6
20260901150041 84 74 2.0 5.0 0.00 0.00 0.00 85 1016.7
20260901144540 82 360 1.0 5.0 0.00 0.00 0.00 88 1016.7
20260901143040 81 57 3.0 5.0 0.00 0.00 0.00 90 1016.7
20260901141531 81 35 1.0 5.0 0.00 0.00 0.00 92 1016.6
20260901140031 80 306 1.0 5.0 0.00 0.00 0.00 94 1016.9